Weather History for Sherman-Denison, TX

Change the Weather History Date:

Monday, October 7, 2013

  Actual Average (KDFW) Record (KDFW)
Temperature  
Mean Temperature 62 °F 70 °F  
Max Temperature 78 °F 81 °F 98 °F (1979)
Min Temperature 46 °F 60 °F 42 °F (1952)
Degree Days  
Heating Degree Days 3 1  
Month to date heating degree days 7  
Since 1 July heating degree days 13  
Cooling Degree Days 0 6  
Month to date cooling degree days 50  
Year to date cooling degree days 2627  
Growing Degree Days 12 (Base 50)    
Moisture  
Dew Point 38 °F    
Average Humidity 44    
Maximum Humidity 78    
Minimum Humidity 18    
Precipitation  
Precipitation 0.00 in 0.12 in 2.71 in (1981)
Month to date precipitation 0.72  
Year to date precipitation 27.38  
Snow  
Snow 0.00 in 0.00 in 0.00 in ()
Month to date snowfall 0.0  
Since 1 July snowfall 0.0  
Since 1 September snowfall 0.0  
Snow Depth -    
Sea Level Pressure  
Sea Level Pressure 30.13 in    
Wind  
Wind Speed 2 mph (NE)    
Max Wind Speed 10 mph    
Max Gust Speed -    
Visibility 10 miles    
Events      
T = Trace of Precipitation, MM = Missing Value Source: NWS Daily Summary

Daily Weather History Graph

Daily Weather History Graph

Search for Another Location

Airport:

Trip Planner

Search our weather history database for the weather conditions in past years. The results will help you decide how hot, cold, wet, or windy it might be!

Date:

Astronomy

Oct. 07, 2013 Rise Set
Actual Time 7:25 AM CDT 7:02 PM CDT
Civil Twilight 7:00 AM CDT 7:27 PM CDT
Nautical Twilight 6:31 AM CDT 7:56 PM CDT
Astronomical Twilight 6:02 AM CDT 8:25 PM CDT
Moon 10:08 AM CDT (10/7) 8:58 PM CDT (10/7)
Length of Visible Light 12h 26m
Length of Day
11h 37m
Waxing Crescent, 9% of the Moon is Illuminated
Oct 7
Waxing Crescent
Oct 11
First Quarter
Oct 18
Full
Oct 26
Last Quarter
Nov 3
New

Hourly Weather History & Observations

Time (CDT) Temp. Dew Point Humidity Pressure Visibility Wind Dir Wind Speed Gust Speed Precip Events Conditions
12:15 AM 52.7 °F 40.6 °F 64% 30.10 in 10.0 mi Calm Calm - N/A   Clear
12:35 AM 52.0 °F 40.8 °F 66% 30.10 in 10.0 mi Calm Calm - N/A   Clear
12:55 AM 52.0 °F 40.8 °F 66% 30.10 in 10.0 mi Calm Calm - N/A   Clear
1:15 AM 52.0 °F 40.5 °F 65% 30.10 in 10.0 mi Calm Calm - N/A   Clear
1:35 AM 51.6 °F 39.4 °F 63% 30.10 in 10.0 mi Calm Calm - N/A   Clear
1:55 AM 51.8 °F 39.2 °F 62% 30.10 in 10.0 mi SW 3.5 mph - N/A   Clear
2:15 AM 51.4 °F 38.7 °F 62% 30.11 in 10.0 mi Calm Calm - N/A   Clear
2:35 AM 51.8 °F 37.9 °F 59% 30.11 in 10.0 mi Calm Calm - N/A   Clear
2:55 AM 52.9 °F 36.7 °F 54% 30.11 in 10.0 mi Calm Calm - N/A   Clear
3:15 AM 51.4 °F 37.4 °F 59% 30.10 in 10.0 mi Calm Calm - N/A   Clear
3:35 AM 51.8 °F 36.7 °F 56% 30.10 in 10.0 mi Calm Calm - N/A   Clear
3:55 AM 50.9 °F 39.9 °F 66% 30.10 in 10.0 mi Calm Calm - N/A   Clear
4:15 AM 51.1 °F 38.1 °F 61% 30.11 in 10.0 mi Calm Calm - N/A   Clear
4:35 AM 49.8 °F 40.1 °F 69% 30.11 in 10.0 mi Calm Calm - N/A   Clear
4:55 AM 49.1 °F 37.4 °F 64% 30.11 in 10.0 mi Calm Calm - N/A   Clear
5:15 AM 49.5 °F 37.4 °F 63% 30.12 in 10.0 mi SSW 3.5 mph - N/A   Clear
5:35 AM 49.1 °F 37.4 °F 64% 30.12 in 10.0 mi Calm Calm - N/A   Clear
5:55 AM 50.0 °F 37.8 °F 63% 30.12 in 10.0 mi Calm Calm - N/A   Clear
6:15 AM 50.9 °F 37.9 °F 61% 30.12 in 10.0 mi Calm Calm - N/A   Clear
6:35 AM 49.1 °F 39.4 °F 69% 30.12 in 10.0 mi Calm Calm - N/A   Clear
6:55 AM 48.2 °F 39.6 °F 72% 30.13 in 10.0 mi Calm Calm - N/A   Clear
7:15 AM 47.8 °F 39.0 °F 71% 30.13 in 10.0 mi Calm Calm - N/A   Clear
7:35 AM 47.8 °F 38.7 °F 70% 30.14 in 10.0 mi SW 3.5 mph - N/A   Clear
7:55 AM 46.4 °F 39.7 °F 78% 30.14 in 10.0 mi Calm Calm - N/A   Clear
8:15 AM 48.9 °F 41.4 °F 75% 30.15 in 10.0 mi Calm Calm - N/A   Clear
8:35 AM 50.7 °F 41.4 °F 70% 30.16 in 10.0 mi Calm Calm - N/A   Clear
8:55 AM 52.3 °F 43.7 °F 72% 30.17 in 10.0 mi NNE 3.5 mph - N/A   Clear
9:15 AM 55.4 °F 47.7 °F 75% 30.17 in 10.0 mi Calm Calm - N/A   Clear
9:35 AM 58.5 °F 48.7 °F 70% 30.17 in 10.0 mi Calm Calm - N/A   Clear
9:55 AM 63.1 °F 49.1 °F 60% 30.18 in 10.0 mi North 4.6 mph - N/A   Clear
10:15 AM 67.3 °F 40.8 °F 38% 30.18 in 10.0 mi NNE 6.9 mph - N/A   Clear
10:35 AM 68.9 °F 36.1 °F 30% 30.18 in 10.0 mi NNE 8.1 mph - N/A   Clear
10:55 AM 70.7 °F 34.7 °F 27% 30.19 in 10.0 mi NNE 3.5 mph - N/A   Clear
11:15 AM 71.4 °F 33.8 °F 25% 30.19 in 10.0 mi Calm Calm - N/A   Clear
11:35 AM 72.7 °F 33.4 °F 24% 30.19 in 10.0 mi NE 4.6 mph - N/A   Clear
11:55 AM 73.6 °F 32.7 °F 22% 30.18 in 10.0 mi Calm Calm - N/A   Clear
12:15 PM 74.3 °F 31.6 °F 21% 30.18 in 10.0 mi North 6.9 mph - N/A   Clear
12:35 PM 75.0 °F 30.9 °F 20% 30.18 in 10.0 mi NE 4.6 mph - N/A   Clear
12:55 PM 75.4 °F 31.1 °F 20% 30.17 in 10.0 mi NE 4.6 mph - N/A   Clear
1:15 PM 76.1 °F 29.8 °F 18% 30.16 in 10.0 mi NNE 5.8 mph - N/A   Clear
1:35 PM 77.5 °F 32.2 °F 19% 30.16 in 10.0 mi NNW 4.6 mph - N/A   Clear
1:55 PM 77.4 °F 32.4 °F 19% 30.15 in 10.0 mi NNW 5.8 mph - N/A   Clear
2:15 PM 76.8 °F 32.4 °F 20% 30.14 in 10.0 mi ENE 3.5 mph - N/A   Clear
2:35 PM 78.1 °F 32.5 °F 19% 30.13 in 10.0 mi NW 10.4 mph - N/A   Clear
2:55 PM 77.9 °F 32.9 °F 19% 30.13 in 10.0 mi NNE 6.9 mph - N/A   Clear
3:15 PM 77.9 °F 32.4 °F 19% 30.12 in 10.0 mi NE 8.1 mph - N/A   Clear
3:35 PM 77.5 °F 30.9 °F 18% 30.12 in 10.0 mi NNE 5.8 mph - N/A   Clear
3:55 PM 78.8 °F 31.6 °F 18% 30.12 in 10.0 mi NE 8.1 mph - N/A   Clear
4:15 PM 78.1 °F 31.8 °F 19% 30.11 in 10.0 mi NNE 3.5 mph - N/A   Clear
4:35 PM 78.4 °F 32.5 °F 19% 30.11 in 10.0 mi Calm Calm - N/A   Clear
4:55 PM 77.9 °F 32.5 °F 19% 30.10 in 10.0 mi NE 3.5 mph - N/A   Clear
5:15 PM 77.9 °F 33.3 °F 20% 30.10 in 10.0 mi Calm Calm - N/A   Clear
5:35 PM 77.0 °F 33.6 °F 21% 30.09 in 10.0 mi NE 4.6 mph - N/A   Clear
5:55 PM 76.6 °F 34.0 °F 21% 30.09 in 10.0 mi Calm Calm - N/A   Clear
6:15 PM 75.4 °F 35.2 °F 23% 30.10 in 10.0 mi Calm Calm - N/A   Clear
6:35 PM 73.4 °F 37.6 °F 27% 30.10 in 10.0 mi Calm Calm - N/A   Clear
6:55 PM 73.6 °F 36.5 °F 26% 30.10 in 10.0 mi Calm Calm - N/A   Clear
7:15 PM 72.3 °F 37.0 °F 28% 30.09 in 10.0 mi Calm Calm - N/A   Clear
7:35 PM 69.8 °F 39.7 °F 33% 30.10 in 10.0 mi Calm Calm - N/A   Clear
7:55 PM 69.1 °F 41.4 °F 37% 30.10 in 10.0 mi Calm Calm - N/A   Clear
8:15 PM 68.7 °F 38.8 °F 34% 30.10 in 10.0 mi Calm Calm - N/A   Clear
8:35 PM 66.4 °F 41.2 °F 40% 30.10 in 10.0 mi ENE 3.5 mph - N/A   Clear
8:55 PM 62.6 °F 41.7 °F 46% 30.11 in 10.0 mi ENE 3.5 mph - N/A   Clear
9:15 PM 63.9 °F 40.6 °F 43% 30.11 in 10.0 mi East 4.6 mph - N/A   Clear
9:35 PM 63.7 °F 40.1 °F 42% 30.12 in 10.0 mi East 4.6 mph - N/A   Clear
9:55 PM 64.2 °F 39.4 °F 40% 30.12 in 10.0 mi East 4.6 mph - N/A   Clear
10:15 PM 62.4 °F 40.8 °F 45% 30.12 in 10.0 mi East 5.8 mph - N/A   Clear
10:35 PM 60.4 °F 42.3 °F 51% 30.12 in 10.0 mi East 5.8 mph - N/A   Clear
10:55 PM 62.8 °F 39.4 °F 42% 30.12 in 10.0 mi East 4.6 mph - N/A   Clear
11:15 PM 61.7 °F 39.9 °F 45% 30.12 in 10.0 mi East 3.5 mph - N/A   Clear
11:35 PM 60.1 °F 40.5 °F 48% 30.11 in 10.0 mi East 4.6 mph - N/A   Clear
11:55 PM 58.6 °F 41.0 °F 52% 30.11 in 10.0 mi East 5.8 mph - N/A   Clear